Location: Catstown
(52.4386°N, 7.2633°W)
Time: 14:17:35
(UTC+00:00)

Lacrosse 4 Rocket - Pass Details

Date: 18 September 2020
Orbit: 543 x 615 km, 68.0° (Epoch: 27 October)

Event Time Altitude Azimuth Distance (km) Brightness Sun altitude
Rises 19:16:52 0° 320° (NW) 2,718 5.8 -7.0°
Reaches altitude 10° 19:21:14 10° 5° (N) 1,822 4.1 -7.7°
Maximum altitude 19:21:48 10° 13° (NNE) 1,806 4.0 -7.7°
Drops below altitude 10° 19:22:23 10° 21° (NNE) 1,822 3.9 -7.8°
Enters shadow 19:25:50 - 59° (ENE) 2,454 4.2 -8.3°
